When you browse on this site, cookies collect data to enhance your experience and personalize the content and advertising you see.
Visit our Privacy Policy to learn more. By continuing to use the site, you agree to this use of cookies and data.
  • Em Portugal
  • Lista de países
  • Para 7 dias
  • Temperatura da água
  • Mapas de satélite
  • Mapa do tempo
  • Widgets de tempo
  • user-avatar
    Iniciar Sessão

    Previsão horária em Oran

    Hoje, 22 Março, Sexta-feira

    Tempo Temperatura Precipitação Vento Pressão Humidade
    00:00 +10°C° 0 mm 4 m/s 758 mmHg 82%
    01:00 +10°C° 0 mm 4 m/s 758 mmHg 83%
    02:00 +10°C° 0 mm 4 m/s 757 mmHg 84%
    03:00 +10°C° 0 mm 4 m/s 757 mmHg 85%
    04:00 +10°C° 0.1 mm 4 m/s 757 mmHg 85%
    05:00 +10°C° 0.1 mm 4 m/s 757 mmHg 85%
    06:00 +11°C° 0.1 mm 4 m/s 757 mmHg 85%
    07:00 +12°C° 0.1 mm 5 m/s 758 mmHg 79%
    08:00 +13°C° 0.1 mm 5 m/s 758 mmHg 73%
    09:00 +14°C° 0.1 mm 6 m/s 758 mmHg 68%
    10:00 +15°C° 0.1 mm 6 m/s 758 mmHg 65%
    11:00 +15°C° 0.1 mm 6 m/s 758 mmHg 62%
    12:00 +16°C° 0.1 mm 6 m/s 758 mmHg 60%
    13:00 +16°C° 0 mm 6 m/s 758 mmHg 60%
    14:00 +16°C° 0 mm 6 m/s 757 mmHg 60%
    15:00 +16°C° 0 mm 6 m/s 757 mmHg 60%
    16:00 +15°C° 0 mm 5 m/s 757 mmHg 65%
    17:00 +14°C° 0 mm 5 m/s 757 mmHg 70%
    18:00 +14°C° 0 mm 4 m/s 757 mmHg 74%
    19:00 +13°C° 0 mm 4 m/s 758 mmHg 79%
    20:00 +12°C° 0 mm 3 m/s 758 mmHg 83%
    21:00 +11°C° 0 mm 3 m/s 758 mmHg 88%
    22:00 +11°C° 0 mm 3 m/s 758 mmHg 88%
    23:00 +10°C° 0 mm 2 m/s 758 mmHg 88%

    Amanhã, 23 Março, Sábado

    Tempo Temperatura Precipitação Vento Pressão Humidade
    00:00 +10°C° 0 mm 2 m/s 758 mmHg 89%
    01:00 +10°C° 0 mm 2 m/s 758 mmHg 89%
    02:00 +10°C° 0 mm 2 m/s 758 mmHg 89%
    03:00 +9°C° 0 mm 2 m/s 757 mmHg 89%
    04:00 +9°C° 0 mm 2 m/s 757 mmHg 89%
    05:00 +9°C° 0 mm 3 m/s 757 mmHg 89%
    06:00 +9°C° 0 mm 3 m/s 757 mmHg 90%
    07:00 +11°C° 0 mm 3 m/s 757 mmHg 83%
    08:00 +13°C° 0 mm 4 m/s 758 mmHg 76%
    09:00 +15°C° 0 mm 4 m/s 758 mmHg 69%
    10:00 +17°C° 0 mm 4 m/s 758 mmHg 62%
    11:00 +18°C° 0 mm 4 m/s 758 mmHg 55%
    12:00 +19°C° 0 mm 5 m/s 757 mmHg 49%
    13:00 +19°C° 0 mm 6 m/s 756 mmHg 50%
    14:00 +20°C° 0 mm 7 m/s 756 mmHg 51%
    15:00 +20°C° 0 mm 8 m/s 755 mmHg 52%
    16:00 +18°C° 0 mm 8 m/s 755 mmHg 59%
    17:00 +17°C° 0 mm 8 m/s 755 mmHg 66%
    18:00 +16°C° 0 mm 7 m/s 755 mmHg 73%
    19:00 +15°C° 0 mm 7 m/s 755 mmHg 77%
    20:00 +14°C° 0 mm 6 m/s 756 mmHg 82%
    21:00 +13°C° 0 mm 5 m/s 756 mmHg 86%
    22:00 +13°C° 0 mm 5 m/s 756 mmHg 85%
    23:00 +13°C° 0 mm 5 m/s 755 mmHg 84%

    Depois de amanhã, 24 Março, Domingo

    Tempo Temperatura Precipitação Vento Pressão Humidade
    00:00 +13°C° 0 mm 4 m/s 755 mmHg 83%
    01:00 +13°C° 0 mm 4 m/s 755 mmHg 76%
    02:00 +13°C° 0 mm 4 m/s 755 mmHg 70%
    03:00 +13°C° 0 mm 4 m/s 754 mmHg 64%
    04:00 +13°C° 0 mm 4 m/s 754 mmHg 62%
    05:00 +13°C° 0 mm 4 m/s 755 mmHg 60%
    06:00 +13°C° 0 mm 4 m/s 755 mmHg 58%
    07:00 +15°C° 0 mm 4 m/s 755 mmHg 49%
    08:00 +18°C° 0 mm 4 m/s 755 mmHg 41%
    09:00 +21°C° 0 mm 4 m/s 756 mmHg 32%
    10:00 +22°C° 0 mm 4 m/s 756 mmHg 32%
    11:00 +23°C° 0 mm 4 m/s 756 mmHg 31%
    12:00 +25°C° 0 mm 3 m/s 756 mmHg 30%
    13:00 +24°C° 0 mm 3 m/s 755 mmHg 33%
    14:00 +24°C° 0 mm 3 m/s 755 mmHg 35%
    15:00 +23°C° 0 mm 2 m/s 754 mmHg 37%
    16:00 +21°C° 0 mm 3 m/s 754 mmHg 41%
    17:00 +21°C° 0 mm 4 m/s 754 mmHg 46%
    18:00 +20°C° 0 mm 5 m/s 754 mmHg 50%
    19:00 +19°C° 0 mm 5 m/s 754 mmHg 52%
    20:00 +19°C° 0 mm 5 m/s 755 mmHg 54%
    21:00 +19°C° 0 mm 5 m/s 755 mmHg 57%
    22:00 +17°C° 0 mm 5 m/s 755 mmHg 58%
    23:00 +18°C° 0 mm 4 m/s 755 mmHg 59%

    25 Março, Segunda-feira

    Tempo Temperatura Precipitação Vento Pressão Humidade
    00:00 +17°C° 0 mm 4 m/s 754 mmHg 60%
    01:00 +17°C° 0 mm 4 m/s 754 mmHg 57%
    02:00 +17°C° 0 mm 4 m/s 754 mmHg 55%
    03:00 +17°C° 0 mm 4 m/s 754 mmHg 52%
    04:00 +17°C° 0 mm 4 m/s 754 mmHg 50%
    05:00 +16°C° 0 mm 5 m/s 754 mmHg 47%
    06:00 +16°C° 0 mm 5 m/s 754 mmHg 45%
    07:00 +17°C° 0 mm 5 m/s 754 mmHg 42%
    08:00 +20°C° 0 mm 5 m/s 754 mmHg 40%
    09:00 +22°C° 0 mm 4 m/s 754 mmHg 37%
    10:00 +23°C° 0 mm 4 m/s 754 mmHg 34%
    11:00 +26°C° 0 mm 4 m/s 754 mmHg 31%
    12:00 +27°C° 0 mm 4 m/s 754 mmHg 28%
    13:00 +28°C° 0 mm 5 m/s 753 mmHg 28%
    14:00 +28°C° 0 mm 5 m/s 753 mmHg 28%
    15:00 +28°C° 0 mm 6 m/s 752 mmHg 28%
    16:00 +27°C° 0 mm 6 m/s 752 mmHg 32%
    17:00 +24°C° 0 mm 7 m/s 752 mmHg 37%
    18:00 +22°C° 0 mm 7 m/s 752 mmHg 41%
    19:00 +21°C° 0 mm 7 m/s 752 mmHg 43%
    20:00 +20°C° 0 mm 6 m/s 752 mmHg 45%
    21:00 +19°C° 0 mm 6 m/s 753 mmHg 47%
    22:00 +19°C° 0 mm 5 m/s 753 mmHg 45%
    23:00 +19°C° 0 mm 4 m/s 753 mmHg 44%

    26 Março, Terça-feira

    Tempo Temperatura Precipitação Vento Pressão Humidade
    00:00 +19°C° 0 mm 4 m/s 753 mmHg 42%
    01:00 +18°C° 0 mm 3 m/s 753 mmHg 41%
    02:00 +18°C° 0 mm 3 m/s 752 mmHg 40%
    03:00 +18°C° 0 mm 3 m/s 752 mmHg 39%
    04:00 +18°C° 0 mm 3 m/s 752 mmHg 39%
    05:00 +18°C° 0 mm 3 m/s 752 mmHg 39%
    06:00 +17°C° 0 mm 3 m/s 753 mmHg 39%
    07:00 +19°C° 0 mm 4 m/s 753 mmHg 37%
    08:00 +21°C° 0 mm 4 m/s 753 mmHg 35%
    09:00 +23°C° 0 mm 4 m/s 753 mmHg 32%
    10:00 +26°C° 0 mm 5 m/s 753 mmHg 30%
    11:00 +28°C° 0 mm 5 m/s 753 mmHg 27%
    12:00 +29°C° 0 mm 6 m/s 753 mmHg 24%
    13:00 +29°C° 0 mm 7 m/s 752 mmHg 25%
    14:00 +29°C° 0 mm 7 m/s 752 mmHg 27%
    15:00 +29°C° 0 mm 8 m/s 751 mmHg 28%
    16:00 +27°C° 0 mm 8 m/s 751 mmHg 34%
    17:00 +24°C° 0 mm 8 m/s 751 mmHg 40%
    18:00 +22°C° 0 mm 8 m/s 751 mmHg 46%
    19:00 +21°C° 0 mm 7 m/s 751 mmHg 49%
    20:00 +20°C° 0 mm 6 m/s 751 mmHg 52%
    21:00 +20°C° 0 mm 6 m/s 752 mmHg 55%
    22:00 +19°C° 0 mm 5 m/s 752 mmHg 51%
    23:00 +19°C° 0 mm 4 m/s 752 mmHg 47%

    27 Março, Quarta-feira

    Tempo Temperatura Precipitação Vento Pressão Humidade
    00:00 +19°C° 0 mm 3 m/s 752 mmHg 42%
    01:00 +19°C° 0 mm 3 m/s 752 mmHg 39%
    02:00 +19°C° 0 mm 4 m/s 751 mmHg 35%
    03:00 +19°C° 0 mm 4 m/s 751 mmHg 31%
    04:00 +19°C° 0 mm 4 m/s 751 mmHg 31%
    05:00 +19°C° 0 mm 3 m/s 752 mmHg 31%
    06:00 +19°C° 0 mm 3 m/s 752 mmHg 31%
    07:00 +19°C° 0.2 mm 4 m/s 752 mmHg 35%
    08:00 +19°C° 0.2 mm 4 m/s 752 mmHg 38%
    09:00 +19°C° 0.2 mm 4 m/s 753 mmHg 42%
    10:00 +19°C° 0.7 mm 5 m/s 753 mmHg 47%
    11:00 +19°C° 0.7 mm 6 m/s 753 mmHg 51%
    12:00 +20°C° 0.7 mm 7 m/s 753 mmHg 56%
    13:00 +21°C° 0.1 mm 8 m/s 752 mmHg 53%
    14:00 +22°C° 0.1 mm 8 m/s 752 mmHg 50%
    15:00 +23°C° 0.1 mm 9 m/s 751 mmHg 47%
    16:00 +21°C° 0.4 mm 7 m/s 751 mmHg 53%
    17:00 +20°C° 0.4 mm 6 m/s 751 mmHg 60%
    18:00 +19°C° 0.4 mm 4 m/s 751 mmHg 66%
    19:00 +19°C° 1.2 mm 5 m/s 752 mmHg 68%
    20:00 +17°C° 1.2 mm 5 m/s 752 mmHg 69%
    21:00 +17°C° 1.2 mm 5 m/s 753 mmHg 71%
    22:00 +18°C° 0.3 mm 4 m/s 753 mmHg 69%
    23:00 +17°C° 0.3 mm 4 m/s 753 mmHg 66%
    Mostrar mais